Regional Weather Roundup
Issued by NWS Pendleton, OR

Home | Current Version | Previous Version | Text Only | Print | Product List | Glossary On
Versions: 1 2 3 4 5 6 7 8 9 10 11 12 13 14 15 16 17 18 19 20 21 22 23 24 25 26 27 28 29 30 31 32 33 34 35 36 37 38 39 40 41 42 43 44 45 46 47 48 49 50
000
ASUS46 KPDT 301925
RWRPDT
PENDLETON REGIONAL WEATHER ROUNDUP
NATIONAL WEATHER SERVICE PENDLETON OREGON
1200 PM PDT THU JUL 30 2015

NOTE: FAIR INDICATES FEW OR NO CLOUDS BELOW 12,000 FEET WITH NO
SIGNIFICANT WEATHER AND/OR OBSTRUCTIONS TO VISIBILITY.

# INDICATES UNOFFICIAL STATION AND DATA

WAZ520-302010-
EAST SLOPES OF WASHINGTON CASCADES

CITY            SKY/WX      TMP DP  RH  WIND    PRES   REMARKS
#BULLFROG 2SW   N/A         86  40  20  N3      27.74F
#BUMPING DAM    N/A         81  N/A N/A S1      N/A
#CLE ELUM HS    N/A         85  37  18  S7      30.08F
#CLE ELUM LAKE  N/A         88  43  21  SW1     30.00F
#CLIFFDEL 2NW   N/A         89  39  17  S1      N/A
#GLENWOOD       N/A         88  47  24  CALM    30.04F
#MANASTASH CYN  N/A         84  46  27  NW2     30.14F
#NELSON         N/A         90  42  19  CALM    30.04F HX 86
#NELSON 3SW     N/A         84  40  21  CALM    30.22F
#NILE           N/A         91  37  15  E1      29.31F HX 87
#RONALD 2NW     N/A         85  44  24  SW2     30.04F
#SNOWDEN        N/A         87  19   8  E6      N/A
#TEANAWAY 4NE   N/A         89  48  24  S2      N/A
#TROUT LAKE 1NE N/A         88  41  19  S3      30.03S
$$

WAZ521-302010-
SIMCOE HIGHLANDS

CITY            SKY/WX      TMP DP  RH  WIND    PRES   REMARKS
#BICKLETON HS   N/A         84  24  11  SE7     N/A
#CENTERVILLE 4W N/A         88  42  20  CALM    29.88F
#CENTERVILLE 1SWN/A         88  43  21  SE10    29.99F
#GOLDENDALE     N/A         89  37  16  E3      N/A
#GOLDENDALE 1NE N/A         91  27  10  SE5     N/A    HX 87
#GOLDENDALE 5WNWN/A         92  43  18  E3      30.00F HX 88
#GOODNOE HILLS  N/A         95  36  13  E10     N/A    HX 90
#LYLE 6NE       N/A         88  44  22  W1      29.99F
$$

WAZ026-302010-
KITTITAS VALLEY

CITY            SKY/WX      TMP DP  RH  WIND    PRES   REMARKS
ELLENSBURG AP   SUNNY       90  45  21  VRB3    30.13F HX 86
YTC-OPS AREA    N/A         84  35  17  N10     30.19F
#ELLENSBURG CWU N/A         87  48  26  E1      29.99F
#ELLENSBURG 3NE N/A         86  48  27  N1      30.12F
#ELLENSBURG 1E  N/A         85  53  33  CALM    N/A
#KITTITAS 3S    N/A         79  56  45  CALM    30.04F
#THORP 6N       N/A         86  40  20  E9      30.05F
$$

WAZ027-302010-
YAKIMA VALLEY

CITY            SKY/WX      TMP DP  RH  WIND    PRES   REMARKS
SUNNYSIDE AP    SUNNY       86  47  26  CALM    30.08F
YAKIMA AIRPORT  SUNNY       93  41  17  E3      30.10F HX 89
#DONALD 2NE     N/A         96  21   7  SE1     28.94F HX 91
#GRANDVIEW      N/A         87  47  25  CALM    30.05F
#MABTON         N/A         85  55  36  N2      30.07F
#MOXEE 2E       N/A         89   4   4  S2      29.94F
#NACHES 2SW     N/A         90  54  30  SE2     30.15S HX 88
#OUTLOOK DOT    N/A         N/A N/A N/A E1      N/A
#SELAH 8E       N/A         93  33  12  S7      N/A    HX 89
#TERRACE HTS    N/A         89  47  24  SW1     30.01F
#TOPPENISH      N/A         87  52  30  E3      29.96F
#WAPATO 4NE     N/A         96  21   7  SE1     28.94F HX 91
#WEST VALLEY    N/A         88  46  23  CALM    30.02F
#WHITE SWAN 5E  N/A         87  50  28  N5      30.04F
#WILEY CITY 3W  N/A         90  33  13  N2      30.08F HX 86
$$

WAZ028-302010-
LOWER COLUMBIA BASIN...WASHINGTON

CITY            SKY/WX      TMP DP  RH  WIND    PRES   REMARKS
HANFORD         SUNNY       92  35  13  NE5     30.08S HX 88
PASCO           SUNNY       88  50  27  VRB5    30.08F
RICHLAND AWOS   SUNNY       90  48  24  CALM    30.08F HX 87
#BASIN CITY 5SW N/A         90  54  30  N3      30.08F HX 88
#BENTON CITY    N/A         86  47  26  CALM    29.95F
#CONNELL 5N     N/A         94  45  19  SW1     30.03F HX 90
#CONNELL 5NW    N/A         88  56  34  W6      30.01F
#ELTOPIA 6NW    N/A         90  56  32  NW5     29.07F HX 88
#KAHLOTUS       N/A         91  35  14  SE3     30.04F HX 87
#KENNEWICK      N/A         86  40  20  N3      27.74F
#KENNEWICK 3S   N/A         86  51  30  CALM    30.05F
#PATERSON       N/A         86  50  29  SW2     30.02F
#PROSSER        N/A         88  42  20  NW1     30.03F
#SAGEMOOR 2W    N/A         85  59  41  N3      29.90F
#TOUCHET 2S     N/A         90  55  31  NW2     30.03F HX 88
#WEST PASCO     N/A         88  57  35  E2      30.05F
$$

WAZ029-302010-
FOOTHILLS OF THE BLUES...WASHINGTON

CITY            SKY/WX      TMP DP  RH  WIND    PRES   REMARKS
WALLA WALLA AP  SUNNY       91  38  16  VRB3    30.10F HX 87
#DAYTON SCHOOL  N/A         94  39  15  S1      30.10F HX 90
#LOWDEN 2SE     N/A         90  49  25  W1      30.02F HX 87
#PLEASANT VIEW 1N/A         92  32  12  N5      30.06F HX 88
#PRESCOTT       N/A         97  40  14  CALM    30.01F HX 92
#SUDBURY        N/A         93  N/A N/A CALM    N/A
#WHITMAN COLLEGEN/A         88  45  23  CALM    30.08F
#WAITSBURG 8N   N/A         99  33  10  S3      29.94R HX 94
#WALLA WALLA U  N/A         89  46  23  CALM    30.03F
#WHITMAN MISSIONN/A         89  47  24  CALM    30.04F
$$

WAZ030-302010-
BLUE MOUNTAINS...WASHINGTON

CITY            SKY/WX      TMP DP  RH  WIND    PRES   REMARKS
$$

ORZ009-041-WAZ024-302010-
COLUMBIA RIVER GORGE

CITY            SKY/WX      TMP DP  RH  WIND    PRES   REMARKS
HOOD RIVER AP   SUNNY       90  45  21  CALM    30.06F HX 86
THE DALLES AP   SUNNY       89  35  15  VRB3    30.04F
#ARLINGTON AIRPON/A         90  40  17  E6      29.81F HX 86
#CELILO DOT     N/A         88  57  35  NW1     N/A
#MOSIER 1S      N/A         94  31  11  CALM    30.08S HX 89
#MURDOCK        N/A         89  43  20  W3      30.03F
#RUFUS DOT      N/A         86  55  35  NE3     N/A

$$

ORZ510-302010-
NORTH CENTRAL OREGON

CITY            SKY/WX      TMP DP  RH  WIND    PRES   REMARKS
#CHENOWITH 1W   N/A         87  35  16  E9      N/A
#DUFUR 9E       N/A         87  35  16  E7      30.04F
#GRASS VALLEY 1SN/A         92  44  19  N5      30.03F HX 88
#KENT DOT       N/A         89  41  19  N6      N/A
#MAUPIN SCHOOL  N/A         90  43  20  CALM    30.08F HX 86
#MORO SCHOOL    N/A         90  47  23  NE5     30.12F HX 87
#SHANIKO 5WSW   N/A         88  42  20  S3      N/A
#SHANIKO 4NW    N/A         86  30  13  N3      30.23S
#TYGH VALLEY 2NEN/A         90  43  20  E2      30.01F HX 86
#WAPANITIA AIRPON/A         90  38  16  VRB1    30.02F HX 86
#WASCO DOT      N/A         91  51  26  E3      N/A    HX 88
#WASCO 5NE      N/A         90  43  20  N2      30.02F HX 86
$$

ORZ511-302010-
CENTRAL OREGON

CITY            SKY/WX      TMP DP  RH  WIND    PRES   REMARKS
BEND AIRPORT    SUNNY       88  32  14  N5      30.20F
MADRAS AIRPORT  SUNNY       88  34  15  N5      30.17F
PRINEVILLE AP   SUNNY       93  28  10  VRB5    30.17F HX 88
REDMOND AIRPORT SUNNY       91  31  12  VRB5    30.17F HX 87
#BEND 1SW       N/A         90  37  15  SW1     N/A    HX 86
#BEND-AWBREY    N/A         87  38  18  W3      30.00F
#BEND-KIM LN    N/A         90  45  21  CALM    30.19F HX 86
#CULVER         N/A         88  39  18  N1      30.12F
#LAKE BILLY CHINN/A         89   9   5  NE5     30.15F
#POWELL BUTTE   N/A         89  48  24  NE2     29.81F
#PRINEVILLE 3N  N/A         89  43  20  N2      29.98F
#WARM SPRINGS   N/A         91  42  18  CALM    30.07F HX 87

$$


ORZ509-302010-
EAST SLOPES OF OREGON CASCADES

CITY            SKY/WX      TMP DP  RH  WIND    PRES   REMARKS
#CAMP SHERMAN   N/A         94  39  15  CALM    30.00F HX 90
#LA PINE 4NW    N/A         84  43  24  CALM    30.08F
#SISTERS AIRPOR N/A         87  47  25  N1      30.17S
#SISTERS 3N     N/A         86  40  20  CALM    30.31F
#SUNRIVER       N/A         86  41  21  S3      29.93F

$$

ORZ044-302010-
LOWER COLUMBIA BASIN...OREGON

CITY            SKY/WX      TMP DP  RH  WIND    PRES   REMARKS
HERMISTON       SUNNY       90  46  22  N8      30.06F HX 87
#BOARDMAN SCHOOLN/A         87  48  26  N1      30.06F
#BOARDMAN 8SW   N/A         86  49  28  N3      30.02F
#ECHO 8SW       N/A         90  46  22  N1      30.08F HX 87
#IONE SCHOOL    N/A         89  40  18  E3      30.05S
#IRRIGON 4NW    N/A         89  40  18  E2      N/A
#UMATILLA       N/A         92  50  24  CALM    29.96F HX 89
$$

ORZ507-302010-
NORTHERN FOOTHILLS OF THE BLUES

CITY            SKY/WX      TMP DP  RH  WIND    PRES   REMARKS
PENDLETON AIRPT SUNNY       95  34  12  N8      30.09F HX 90
#ADAMS 3WNW     N/A         95  36  13  NW2     30.01F HX 90
#ATHENA         N/A         91  42  18  N2      30.06F HX 87
#CAYUSE         N/A         94  41  16  NW5     29.99F HX 90
#HELIX SCHOOL   N/A         90  39  17  N7      30.03F HX 86
#HELIX 3N       N/A         90  38  16  N13     30.09F HX 86
#HOLDMAN 5SE    N/A         93  40  16  N2      30.09F HX 89
#HOLDMAN 6E     N/A         94  41  16  N3      29.85F HX 90
#M-F GROVE ELEM N/A         86  38  18  CALM    30.08F
#M-FREEWATER 5SEN/A         88  52  29  NW2     30.09F
#PENDLETON DNTN N/A         99  46  17  CALM    30.02F HX 95
#PDT AQUATIC CTRN/A         92  45  20  S3      30.06S HX 88
#PDT SUNRIDGE   N/A         95  38  14  W1      30.08F HX 91
#PENDLETON 7NW  N/A         92  54  28  CALM    N/A    HX 90
#PILOT ROCK     N/A         90  43  20  N1      30.13F HX 86
#TUTUILLA       N/A         93  40  16  N1      30.05F HX 89
#UMAPINE 2E     N/A         86  51  30  CALM    30.05F
#WESTON SCHOOL  N/A         88  35  15  E1      30.00F

$$

ORZ508-302010-
SOUTHERN FOOTHILLS OF THE BLUES

CITY            SKY/WX      TMP DP  RH  WIND    PRES   REMARKS
#CONDON SCHOOL  N/A         88  38  17  NE6     30.12F
#CONDON 5W      N/A         89  30  12  S2      30.18R
#FOSSIL SCHOOL  N/A         91  33  13  E1      30.10S HX 87
#HEPPNER EOC    N/A         92  39  16  NW6     29.94F HX 88
#HEPPNER 4NE    N/A         87  37  17  NE3     30.01F
#LEXINGTON 2SE  N/A         91  40  17  NW6     30.06F HX 87
#OLEX 4N        N/A         87  40  19  N10     30.07F
#RUGGS 5NE      N/A         92  -8   2  N7      30.33S HX 88
#RUGGS 2SW      N/A         89  37  16  NE3     30.02S

$$

ORZ502-503-302010-
BLUE MOUNTAINS

CITY            SKY/WX      TMP DP  RH  WIND    PRES   REMARKS
MEACHAM         SUNNY       90  32  13  CALM    30.24F HX 86
#BATTLE MTN DOT N/A         84  54  36  S6      N/A
#HEPPNER 15SE   N/A         89  37  16  CALM    30.18S
#LONG CREEK HS  N/A         87  30  13  CALM    30.19F
#N POWDER DOT   N/A         85  50  30  W3      N/A
#PIKES PEAK     N/A         83  39  21  N2      27.99S
#TOLLGATE       N/A         79  36  21  SW3     30.16S
#TROY SCHOOL    N/A         94  48  21  E1      29.88F HX 91
#UKIAH          N/A         89  37  16  E6      30.11F
#WESTON 4E      N/A         88  39  18  SW1     29.97F
$$

ORZ505-302010-
JOHN DAY BASIN

CITY            SKY/WX      TMP DP  RH  WIND    PRES   REMARKS
JOHN DAY        SUNNY       92  31  11  N5      30.24F HX 88
#JOHN DAY KJDY  N/A         92  59  33  CALM    30.18R HX 91
#DAYVILLE SCHOOLN/A         90  34  14  E2      30.12F HX 86
#MITCHELL       N/A         94  52  24  CALM    30.30F HX 91
#MONUMENT HS    N/A         88  39  18  CALM    30.14F
#MT. VERNON 5SE N/A         88  29  12  E3      30.21F
#WINLOCK        N/A         92  35  13  NE8     30.26F HX 88
$$

ORZ506-302010-
OCHOCO AND JOHN DAY HIGHLANDS

CITY            SKY/WX      TMP DP  RH  WIND    PRES   REMARKS
#PAULINA SCHOOL N/A         87  35  16  CALM    30.19F
#PINE MTN OBS   N/A         78  27  15  SW9     N/A
#PRAIRIE CITY   N/A         92  38  15  CALM    29.95F HX 88
#SENECA         N/A         84  N/A N/A S3      N/A
#SENECA 9NW     N/A         85  34  16  CALM    30.10F
$$

ORZ049-302010-
GRANDE RONDE VALLEY

CITY            SKY/WX      TMP DP  RH  WIND    PRES   REMARKS
LA GRANDE       SUNNY       88  43  21  CALM    30.20F
#COVE           N/A         83  52  34  CALM    30.21F
#COVE SCHOOL    N/A         86  49  28  CALM    30.22F
#COVE 6NW       N/A         83  48  30  CALM    30.12F
#ELGIN 3N       N/A         88  41  19  S5      30.16F
#ELGIN 1E       N/A         89  45  22  CALM    N/A
#ISLAND CITY 4N N/A         93  57  30  CALM    30.00F HX 92
#LADD CYN DOT   N/A         83  51  33  NW2     N/A
#LA GRANDE ELEM N/A         85  46  26  CALM    30.20F
#UNION 1S       N/A         82  49  32  CALM    29.99F
$$

ORZ050-302010-
WALLOWA COUNTY

CITY            SKY/WX      TMP DP  RH  WIND    PRES   REMARKS
JOSEPH AIRPORT  SUNNY       86  32  14  N6      30.29F
#ENTERPRISE HS  N/A         84  45  26  NW5     30.24S
#IMNAHA SCHOOL  N/A         93  37  14  N5      30.11F HX 89
#IMNAHA 10S     N/A         94  41  16  NE2     30.16F HX 90
#JOSEPH 3N      N/A         83  38  20  NW6     30.26S
#JOSEPH 3W      N/A         82  36  19  N3      30.13S
#LOSTINE        N/A         85  41  21  CALM    29.89F
#MT HOWARD 8000 N/A         66  34  30  VRB1    30.58S
#PROMISE 1S     N/A         84  42  23  NE5     30.14F
#WALLOWA SCHOOL N/A         87  40  19  CALM    30.15F



$$



USA.gov is the U.S. government's official web portal to all federal, state and local government web resources and services.